Location: Grieser Field
(39.7333°N, 81.7975°W)
Time: 21:30:44
(UTC-04:00)

Meteor 2-1 Rocket - Visible Passes

Search period start: 23 August 2016 00:00
Search period end: 02 September 2016 00:00
Orbit: 828 x 908 km, 81.3° (Epoch: 23 August)

Date Brightness Start Highest point End Pass type
(mag) Time Alt. Az. Time Alt. Az. Time Alt. Az.
23 Aug 6.6 01:31:11 15° NE 01:31:11 15° NE 01:32:27 10° NE visible
23 Aug 5.6 03:13:34 31° NNW 03:13:34 31° NNW 03:16:40 10° N visible
24 Aug 6.6 01:24:43 14° NE 01:24:43 14° NE 01:25:50 10° NE visible
24 Aug 5.7 03:07:07 28° NNW 03:07:07 28° NNW 03:10:00 10° N visible
25 Aug 6.7 01:18:15 14° NE 01:18:15 14° NE 01:19:13 10° NE visible
25 Aug 5.9 03:00:39 26° NNW 03:00:39 26° NNW 03:03:20 10° N visible
26 Aug 6.7 01:11:46 13° NE 01:11:46 13° NE 01:12:36 10° NE visible
26 Aug 6.0 02:54:10 25° NNW 02:54:10 25° NNW 02:56:39 10° N visible
27 Aug 6.7 01:05:17 13° NE 01:05:17 13° NE 01:05:59 10° NE visible
27 Aug 6.1 02:47:41 23° NNW 02:47:41 23° NNW 02:49:59 10° N visible
28 Aug 6.8 00:58:47 12° NE 00:58:47 12° NE 00:59:21 10° NE visible
28 Aug 6.2 02:41:11 22° NNW 02:41:11 22° NNW 02:43:19 10° N visible
29 Aug 6.8 00:52:16 12° NE 00:52:16 12° NE 00:52:44 10° NE visible
29 Aug 6.3 02:34:40 21° NNW 02:34:40 21° NNW 02:36:39 10° N visible
30 Aug 6.8 00:45:45 11° NE 00:45:45 11° NE 00:46:07 10° NE visible
30 Aug 6.4 02:28:09 20° NNW 02:28:09 20° NNW 02:29:58 10° N visible
31 Aug 6.8 00:39:14 11° NE 00:39:14 11° NE 00:39:30 10° NE visible
31 Aug 6.4 02:21:37 19° NNW 02:21:37 19° NNW 02:23:18 10° N visible
01 Sep 6.9 00:32:41 11° NE 00:32:41 11° NE 00:32:53 10° NE visible
01 Sep 6.5 02:15:05 18° NNW 02:15:05 18° NNW 02:16:37 10° N visible
